Regional Weather Roundup
Issued by NWS Sioux Falls, SD

Home | Current Version | Previous Version | Text Only | Print | Product List | Glossary Off
Versions: 1 2 3 4 5 6 7 8 9 10 11 12 13 14 15 16 17 18 19 20 21 22 23 24 25 26 27 28 29 30 31 32 33 34 35 36 37 38 39 40 41 42 43 44 45 46 47 48 49 50

000
ASUS43 KFSD 052002
RWRFSD

WEATHER ROUNDUP FOR SE SOUTH DAKOTA/SW MINNESOTA/NW IOWA
NATIONAL WEATHER SERVICE SIOUX FALLS SD
200 PM CST MON DEC 05 2016

NOTE: "FAIR" INDICATES FEW OR NO CLOUDS BELOW 12,000 FEET WITH NO
SIGNIFICANT WEATHER AND OR OBSTRUCTIONS TO VISIBILITY.


SDZ038>040-050-052>070-052100-
SOUTHEAST SOUTH DAKOTA

CITY           SKY/WX    TMP DP  RH WIND       PRES   REMARKS
CHAMBERLAIN    NOT AVBL
HURON          SUNNY     43  31  62 W16       29.46R
MADISON        FAIR      41  36  81 S16G24    29.44F
MITCHELL       SUNNY     46  32  58 W17       29.48R
SIOUX FALLS    PTSUNNY   43  33  68 S18       29.50S
WINNER         CLOUDY    37  29  72 NW28G40   29.57R
YANKTON        CLOUDY    46  30  53 S17       29.51R
$$

MNZ071-072-080-081-089-090-097-098-052100-
SOUTHWEST MINNESOTA

CITY           SKY/WX    TMP DP  RH WIND       PRES   REMARKS
FAIRMONT       CLOUDY    43  36  76 S25G33    29.59F
JACKSON        CLOUDY    43  32  65 S24G31    29.53F
LUVERNE        MOSUNNY   39  32  75 S16       29.53R
MARSHALL       CLOUDY    42  34  73 S18G24    29.50F
MONTEVIDEO     CLOUDY    37  34  87 S14       29.51F
PIPESTONE      MOSUNNY   41  36  81 SW18G26   29.48F
REDWOOD FALLS  CLOUDY    39  33  79 SE14      29.54F
TRACY          CLOUDY    44  36  74 S14G21    29.51S
WINDOM         CLOUDY    45  34  65 S17G23    29.53R
WORTHINGTON    CLOUDY    43  34  70 S23G31    29.52S
$$

IAZ001>003-012>014-020>022-031-032-NEZ013-014-SDZ071-052100-
NORTHWEST IOWA

CITY           SKY/WX    TMP DP  RH WIND       PRES   REMARKS
CHEROKEE       CLOUDY    45  34  66 S23G31    29.58F
DENISON        MOSUNNY   46  36  66 S21G36    29.62R
ESTHERVILLE    CLOUDY    43  37  79 S23G33    29.57F
LE MARS        CLOUDY    45  34  65 S23G30    29.55F
ORANGE CITY    CLOUDY    43  36  75 S26G33    29.53S
SHELDON        CLOUDY    45  34  65 S22G33    29.52R
SIOUX CITY     CLOUDY    46  35  65 S21G31    29.59S
SPENCER        CLOUDY    46  34  62 S31G41    29.56F
STORM LAKE     MOSUNNY   45  36  70 S23G32    29.61R
$$

ABBREVIATIONS USED IN REMARKS
   TC - TEMPERATURE IN CELSIUS
  WCI - WIND CHILL INDEX
   HX - HEAT INDEX
  VSB - VISIBILITY





USA.gov is the U.S. government's official web portal to all federal, state and local government web resources and services.